Home   Weather   Victorville   Past weeks
Flag for USA

Past Weather in Victorville, California, USA — Yesterday and Last 2 Weeks

Now
79 °F

Sunny.


Feels Like: 78 °F
Forecast: 80 / 45 °F
Wind: 7 mph from North

Location: Barstow-Daggett Airport

Current Time: Sep 20, 2019 at 1:30:31 pm

Latest Report: Sep 20, 2019 at 12:50 pm


Visibility: 10 mi

Pressure: 29.88 "Hg (27.18 "Hg at 830m altitude)

Humidity: 19%

Dew Point: 33 °F

Location of VictorvilleLocation

Past Weather in Victorville — Graph

°F

Victorville Temperature Yesterday

Maximum temperature yesterday: 86 °F (at 2:50 pm)
Minimum temperature yesterday: 65 °F (at 4:50 am)
Average temperature yesterday: 74 °F

High & Low Weather Summary for the Past Weeks

 TemperatureHumidityPressure
High103 °F (Sep 6, 3:50 pm)56% (Sep 17, 6:50 am)30.05 "Hg (Sep 17, 6:50 am)
Low57 °F (Sep 20, 6:50 am)6% (Sep 15, 3:50 pm)29.65 "Hg (Sep 9, 4:50 pm)
Average81 °F24%29.84 "Hg
* Reported Sep 5 11:50 am — Sep 20 11:50 am, Victorville. Weather by CustomWeather, © 2019

Note: Actual official high and low records may vary slightly from our data, if they occured in-between our weather recording intervals... More about our weather records

Advertising

Victorville Weather History for the Previous 24 Hours

Scroll right to see more
 ConditionsComfort  
Time TempWeatherWind HumidityBarometerVisibility
11:50 am
Fri, Sep 20
78 °FSunny.3 mph20%29.90 "Hg10 mi
10:50 am74 °FSunny.No wind24%29.91 "Hg10 mi
9:50 am71 °FSunny.6 mph28%29.91 "Hg10 mi
8:50 am66 °FSunny.10 mph33%29.90 "Hg10 mi
7:50 am61 °FSunny.9 mph39%29.90 "Hg10 mi
6:50 am57 °FSunny.9 mph46%29.89 "Hg10 mi
5:50 am58 °FClear.10 mph43%29.87 "Hg10 mi
4:50 am58 °FClear.10 mph44%29.85 "Hg10 mi
3:50 am60 °FClear.10 mph42%29.83 "Hg10 mi
2:50 am63 °FClear.10 mph38%29.81 "Hg10 mi
1:50 am66 °FClear.10 mph34%29.81 "Hg10 mi
12:50 am65 °FClear.9 mph39%29.80 "Hg10 mi
11:50 pm
Thu, Sep 19
66 °FClear.12 mph37%29.79 "Hg10 mi
10:50 pm67 °FClear.18 mph35%29.78 "Hg10 mi
9:50 pm68 °FClear.22 mph31%29.75 "Hg10 mi
8:50 pm70 °FClear.22 mph32%29.74 "Hg10 mi
7:50 pm74 °FClear.23 mph23%29.72 "Hg10 mi
6:50 pm76 °FClear.23 mph24%29.70 "Hg10 mi
5:50 pm80 °FSunny.24 mph20%29.69 "Hg10 mi
4:50 pm84 °FSunny.26 mph15%29.68 "Hg10 mi
3:50 pm86 °FSunny.24 mph13%29.67 "Hg10 mi
2:50 pm86 °FSunny.20 mph14%29.69 "Hg10 mi
1:50 pm84 °FSunny.22 mph19%29.71 "Hg10 mi
Weather by CustomWeather, © 2019

See weather overview